[[{"header":{"parameterUnit":"m.s-1","parameterCategory":1,"la1":30.2992,"la2":30.254,"lo1":-89.0895,"lo2":-89.0443,"dy":0.0025,"dx":0.0025,"nx":19,"ny":19,"refTime":"2026-05-11T09:00:00:Z","depth":0,"parameterNumber":2,"parameterNumberName":"U-component_of_WINDS"},"data":[0,0,0,0.2849,0.285,0.2872,0.2872,0.2893,0.2893,0,0,0,0,0,0,0,0,0,0,0,0.284,0.284,0.2849,0.285,0.2872,0.2872,0.2893,0.2893,0,0,0,0,0,0,0,0,0,0,0,0.284,0.284,0.284,0.285,0.2872,0.2872,0.2893,0.2879,0,0,0,0,0,0,0,0,0,0,0.2858,0.2847,0.284,0.284,0.285,0.2872,0.2872,0.2878,0.288,0.288,0,0.2881,0,0.2887,0.2894,0.2894,0,0,0,0.2852,0.2845,0.2854,0.284,0.285,0.2872,0.2863,0.2879,0.2881,0.2882,0.2881,0.2882,0.2888,0.2894,0.2894,0.2891,0.2891,0,0,0.2851,0.2842,0.2853,0.2855,0.2853,0.2862,0.2863,0.288,0.2878,0.2881,0.2883,0.2888,0.2894,0.2895,0.2891,0.2891,0,0,0,0.2846,0.2841,0.285,0.2854,0.2859,0.2863,0.2864,0.2878,0.2881,0.2883,0.2888,0.2894,0.2895,0.2892,0.2891,0.2877,0,0,0,0.2845,0.2838,0.2849,0.2844,0.2858,0.2869,0.2861,0.288,0.2882,0.2888,0.2895,0.2895,0.2892,0.2891,0.2877,0.2871,0,0,0,0.2839,0.2837,0.284,0.2843,0.2853,0.2869,0.2873,0.2881,0.2885,0.2894,0.2895,0.2892,0.2891,0.2878,0.2873,0.2867,0,0,0,0.283,0.2827,0.2839,0.2837,0.2852,0.286,0.2873,0.2879,0.2885,0.2895,0.2892,0.2891,0.2878,0.2873,0.2868,0.2861,0.2857,0,0,0.2821,0.2826,0.2825,0.2837,0.284,0.2857,0.2857,0.2871,0.288,0.2887,0.2887,0.2877,0.2873,0.2867,0.2841,0.2838,0,0,0,0.2819,0.2819,0.2822,0.2827,0.2837,0.2844,0.2859,0.2864,0.2869,0.2882,0.2874,0.2872,0.2869,0.2866,0.2863,0.2861,0.289,0.289,0.289,0.2795,0.2805,0.2804,0.2817,0.2821,0.2835,0.2839,0.2847,0.2858,0.2855,0.2857,0.284,0.2836,0.2835,0.2832,0.2855,0.2855,0.2855,0.2855,0.2782,0.2783,0.2794,0.2798,0.2808,0.281,0.2821,0.2828,0.283,0.284,0.2838,0.2848,0.2831,0.2829,0.2854,0.2854,0.2854,0.2854,0.2854,0.2768,0.277,0.2775,0.2781,0.2784,0.2796,0.2797,0.2807,0.2816,0.2814,0.2816,0.2816,0.2817,0.2814,0.2814,0.2814,0.2814,0.2814,0.2814,0.2751,0.2757,0.2757,0.2765,0.2768,0.2773,0.2784,0.2787,0.2792,0.2799,0.2799,0.2808,0.2828,0.2832,0.2813,0.2813,0.2813,0.2813,0.2813,0.2734,0.2739,0.274,0.2742,0.2751,0.2752,0.2763,0.2767,0.277,0.277,0.2778,0.2792,0.2797,0.2799,0.2803,0.2777,0.2777,0.2777,0.2777,0.2722,0.2725,0.2726,0.2729,0.2733,0.2742,0.274,0.2747,0.2755,0.2757,0.2762,0.2768,0.2769,0.2773,0.2776,0.278,0.2748,0.2748,0.2748,0.2712,0.2715,0.2713,0.272,0.2727,0.2731,0.2729,0.273,0.274,0.2747,0.2758,0.276,0.2769,0.2772,0.278,0.2784,0.2791,0,0]},{"header":{"parameterUnit":"m.s-1","parameterCategory":1,"la1":30.2992,"la2":30.254,"lo1":-89.0895,"lo2":-89.0443,"dy":0.0025,"dx":0.0025,"nx":19,"ny":19,"refTime":"2026-05-11T09:00:00:Z","depth":0,"parameterNumber":3,"parameterNumberName":"V-component_of_WINDS"},"data":[0,0,0,3.122,3.122,3.1216,3.1216,3.1202,3.1202,0,0,0,0,0,0,0,0,0,0,0,3.1218,3.1218,3.122,3.122,3.1216,3.1216,3.1202,3.1202,0,0,0,0,0,0,0,0,0,0,0,3.1218,3.1218,3.1218,3.122,3.1216,3.1216,3.1202,3.1208,0,0,0,0,0,0,0,0,0,0,3.1214,3.1208,3.1218,3.1218,3.122,3.1216,3.1216,3.1208,3.1208,3.1201,0,3.1195,0,3.1199,3.1201,3.1201,0,0,0,3.1223,3.1209,3.1211,3.1218,3.122,3.1216,3.1218,3.1208,3.1207,3.12,3.1195,3.1195,3.1198,3.12,3.12,3.1158,3.1157,0,0,3.1223,3.1215,3.1212,3.1211,3.1212,3.1219,3.1218,3.1208,3.1201,3.1195,3.1195,3.1198,3.12,3.12,3.1158,3.1158,0,0,0,3.1222,3.1215,3.1218,3.1211,3.1211,3.1218,3.1218,3.1202,3.1204,3.1195,3.1198,3.12,3.12,3.1158,3.1158,3.1135,0,0,0,3.1222,3.1215,3.1218,3.1213,3.1211,3.1207,3.1212,3.1204,3.1203,3.1198,3.12,3.12,3.1159,3.1158,3.1137,3.1126,0,0,0,3.122,3.1214,3.1213,3.1213,3.1211,3.1207,3.1208,3.1204,3.1205,3.1201,3.12,3.1159,3.1158,3.1138,3.1128,3.1112,0,0,0,3.1214,3.1192,3.1212,3.1189,3.121,3.1194,3.1208,3.1196,3.1189,3.12,3.1159,3.1158,3.1138,3.1129,3.1113,3.1097,3.109,0,0,3.1182,3.1188,3.1175,3.1193,3.117,3.1195,3.1169,3.1169,3.1175,3.1163,3.1162,3.1136,3.1128,3.1112,3.1053,3.1047,0,0,0,3.1162,3.1152,3.1148,3.1142,3.1143,3.1142,3.1148,3.1148,3.1138,3.1168,3.1127,3.1122,3.1113,3.1106,3.1101,3.1094,3.1154,3.1155,3.1155,3.1104,3.1114,3.1093,3.1102,3.1096,3.1103,3.1098,3.11,3.1111,3.1101,3.1097,3.106,3.1051,3.1047,3.104,3.109,3.109,3.109,3.109,3.1057,3.1045,3.1061,3.1046,3.1056,3.1044,3.1049,3.1057,3.1046,3.1064,3.1056,3.1074,3.1041,3.1035,3.1088,3.1088,3.1088,3.1089,3.1089,3.102,3.1016,3.1017,3.101,3.1003,3.1013,3.1002,3.1012,3.1021,3.1013,3.101,3.1011,3.1012,3.1011,3.1011,3.1011,3.1011,3.1011,3.1011,3.098,3.0983,3.0973,3.0973,3.097,3.0968,3.0975,3.0972,3.0972,3.098,3.098,3.0991,3.1036,3.1047,3.1009,3.1009,3.1009,3.101,3.101,3.0928,3.0942,3.0926,3.0924,3.0924,3.0916,3.0929,3.0923,3.0923,3.0917,3.093,3.0962,3.0969,3.0973,3.0981,3.0929,3.0929,3.0929,3.0929,3.0896,3.0901,3.0888,3.0883,3.088,3.089,3.0872,3.0876,3.0883,3.0883,3.0893,3.0906,3.0909,3.0913,3.0919,3.0927,3.0862,3.0862,3.0862,3.0864,3.0869,3.0852,3.086,3.0861,3.0861,3.0844,3.0838,3.0848,3.0859,3.0884,3.0886,3.0907,3.0914,3.0924,3.0932,3.0948,0,0]}]]